GEFSSE_850_meantemp_036.txt.gz
Temperature
7 8 9 10 10 10 10 10 11 11 11 12 12 12 13 13 13 13 13 13 13 14 14 14 14 14 14 14 14 15 15 15 16 16 16 16 16 16 16 17 17 17 17
7 9 9 10 10 10 10 10 10 10 11 11 11 12 12 12 12 12 13 13 13 13 13 13 13 13 14 14 14 14 14 15 15 15 16 16 16 16 16 16 16 17 17
8 9 9 9 10 10 10 10 10 10 10 10 10 11 11 11 11 12 12 12 12 13 13 13 13 13 13 14 14 14 14 14 14 15 15 15 16 16 16 16 16 16 16
8 9 9 9 9 9 10 10 10 10 10 10 10 10 10 10 10 10 11 11 11 12 12 12 12 13 13 13 13 13 13 14 14 14 15 15 15 16 16 16 16 16 16
8 9 9 9 9 9 9 9 9 9 8 8 8 8 8 8 8 8 9 9 10 10 11 11 11 12 12 12 13 13 13 13 14 14 14 15 15 15 15 15 16 16 16
8 9 9 9 9 8 8 8 8 7 7 7 7 6 6 7 7 6 7 7 8 8 8 9 10 10 11 12 12 12 13 13 13 14 14 14 14 15 15 15 15 16 16
8 8 8 8 8 8 7 7 6 6 6 6 5 5 5 6 6 5 6 6 6 6 6 7 8 9 9 10 11 12 12 13 13 13 13 14 14 14 15 15 15 15 16
8 8 8 8 7 7 6 6 5 5 5 5 5 5 5 5 5 5 5 5 5 5 5 6 6 7 7 8 9 10 11 12 12 13 13 13 13 14 14 15 15 15 15
7 7 7 7 6 6 5 5 5 4 4 4 4 4 4 4 4 4 4 4 4 4 4 4 5 5 6 7 8 9 10 10 11 12 12 13 13 13 13 14 14 15 15
7 7 6 5 5 5 4 4 4 4 3 3 3 3 3 4 4 4 4 4 3 3 3 4 4 4 5 6 6 7 8 9 10 11 11 12 12 12 13 13 14 14 15
6 6 5 4 4 4 3 3 3 3 3 3 3 3 3 3 3 3 3 3 3 3 3 3 3 3 4 5 5 6 7 8 9 10 10 11 11 12 12 13 13 14 14
5 4 4 3 3 3 2 2 2 2 2 2 2 2 2 2 2 2 2 2 2 2 2 2 2 3 3 4 4 5 6 6 7 8 9 10 10 11 12 12 13 13 14
3 3 3 2 2 2 2 2 2 2 1 1 1 1 1 1 1 1 1 1 1 1 1 1 2 2 2 2 3 4 4 5 6 7 8 9 9 10 11 12 12 13 13
2 2 2 2 2 2 1 1 1 1 1 1 0 -0 -0 0 -0 -0 -0 -1 -0 -0 -0 -0 -0 0 1 1 1 2 3 4 4 5 7 8 9 9 10 11 12 12 13
2 2 2 2 1 1 1 1 0 0 -0 -0 -1 -1 -1 -2 -2 -2 -2 -2 -2 -3 -2 -2 -2 -2 -1 -0 0 1 2 2 3 4 5 6 7 8 9 10 11 12 12
1 1 1 1 1 1 1 0 -0 -0 -1 -1 -2 -2 -3 -3 -3 -4 -4 -4 -4 -4 -4 -4 -4 -3 -3 -2 -1 -0 1 1 2 3 3 5 6 7 8 9 10 11 12
1 1 1 1 0 0 0 -0 -1 -1 -2 -2 -3 -3 -4 -4 -5 -5 -5 -6 -6 -6 -6 -5 -5 -5 -4 -4 -3 -1 -1 0 1 2 2 3 5 6 7 8 9 10 11
0 -0 0 0 0 0 -0 -1 -1 -2 -3 -3 -4 -5 -5 -6 -6 -6 -7 -7 -7 -7 -7 -7 -6 -6 -5 -5 -4 -3 -2 -1 0 1 1 2 3 4 5 7 8 9 10
-1 -1 -0 -0 -0 -0 -1 -1 -2 -3 -3 -4 -5 -5 -6 -6 -7 -7 -8 -8 -8 -8 -8 -8 -8 -8 -7 -7 -6 -5 -3 -2 -1 -1 -0 1 1 2 3 5 7 8 9
-1 -1 -1 -1 -1 -1 -2 -2 -3 -3 -4 -5 -6 -6 -7 -7 -8 -9 -9 -9 -10 -10 -10 -9 -9 -9 -9 -8 -8 -7 -5 -3 -2 -2 -2 -1 -1 0 1 3 5 7 9
-1 -1 -1 -1 -1 -2 -3 -3 -4 -4 -5 -6 -7 -7 -8 -8 -9 -10 -10 -10 -11 -11 -11 -11 -11 -10 -10 -10 -10 -9 -5 -4 -4 -4 -4 -3 -2 -2 -0 1 4 6 8
-1 -1 -1 -2 -2 -3 -4 -5 -5 -6 -6 -7 -7 -8 -9 -9 -10 -10 -11 -11 -12 -12 -12 -12 -12 -12 -12 -12 -12 -11 -9 -7 -5 -4 -4 -4 -3 -3 -1 0 2 4 6
-1 -1 -2 -2 -3 -4 -5 -5 -5 -6 -6 -7 -8 -9 -10 -10 -11 -11 -12 -12 -13 -13 -13 -13 -13 -13 -13 -12 -12 -12 -10 -8 -9 -7 -6 -5 -5 -4 -2 -1 1 2 4
-1 -2 -2 -3 -4 -4 -5 -5 -6 -7 -8 -8 -9 -10 -10 -11 -11 -12 -12 -13 -13 -14 -14 -13 -14 -13 -13 -13 -13 -12 -11 -10 -9 -8 -7 -6 -6 -5 -3 -2 -0 1 3
-2 -2 -2 -3 -4 -4 -5 -6 -7 -8 -9 -9 -10 -10 -11 -11 -12 -12 -13 -13 -13 -14 -14 -14 -14 -14 -14 -14 -13 -12 -11 -10 -10 -9 -8 -7 -6 -5 -4 -3 -1 1 2
-2 -2 -3 -3 -4 -5 -5 -6 -7 -8 -9 -9 -10 -11 -12 -12 -12 -13 -13 -13 -13 -14 -14 -14 -14 -14 -14 -13 -13 -12 -11 -11 -10 -9 -9 -8 -8 -6 -5 -3 -2 -0 1

GEFSSE_850_meantemp_042.txt.gz
Temperature
7 7 8 7 8 8 9 9 9 9 9 9 8 8 8 9 9 9 10 10 11 11 12 12 12 13 13 13 14 14 14 14 14 15 15 15 15 16 16 16 16 16 16
6 7 7 7 7 8 8 8 8 8 8 8 8 8 8 7 7 7 8 8 9 9 10 10 11 11 12 12 13 13 14 14 14 15 15 15 15 15 16 16 16 16 16
7 7 7 7 7 7 8 8 8 8 8 7 7 7 7 7 7 7 7 7 7 7 8 8 9 10 10 11 12 12 13 13 14 14 15 14 14 15 15 15 16 16 16
7 7 7 7 7 7 7 7 7 7 7 6 6 6 6 6 6 6 6 6 6 6 6 6 7 8 8 9 10 11 11 12 13 14 14 14 14 14 14 15 15 15 16
7 7 7 7 7 7 7 6 6 5 5 5 5 5 5 5 5 5 5 5 5 5 5 5 6 6 7 8 8 9 10 11 12 12 13 13 14 14 14 14 15 15 15
7 7 7 7 7 6 6 6 5 5 4 4 5 5 5 5 5 5 5 5 4 4 4 4 5 5 5 6 7 8 8 9 11 11 12 12 13 13 14 14 14 15 15
7 7 7 7 7 6 5 5 5 4 4 4 4 4 4 4 4 4 4 4 4 4 4 4 3 4 4 5 6 6 7 8 9 9 11 11 12 12 13 13 14 14 15
6 7 7 6 6 5 5 4 4 4 4 4 4 4 4 4 4 4 4 4 4 4 3 3 3 3 3 3 4 5 6 7 8 8 9 10 11 11 12 12 13 14 14
6 6 6 6 5 5 4 4 4 4 4 4 4 4 4 4 4 3 3 3 3 3 3 3 3 3 3 3 3 4 5 6 6 7 8 9 9 10 11 11 12 13 13
6 6 6 5 5 4 4 4 4 4 4 4 4 3 3 3 3 3 3 3 2 2 2 2 2 2 3 3 3 3 4 4 5 5 6 7 8 9 10 10 11 12 12
5 5 5 5 4 4 3 3 3 3 3 3 3 3 3 3 2 2 2 2 2 2 1 1 1 1 2 2 2 2 3 3 3 4 5 6 7 8 9 9 10 10 11
4 4 5 4 4 3 3 3 3 3 2 2 2 2 2 1 1 1 1 1 1 1 1 0 0 0 0 0 1 1 1 1 2 3 3 5 6 6 7 8 9 10 10
4 4 4 3 3 2 2 2 2 2 1 1 1 1 0 0 0 -0 -0 -0 -1 -1 -1 -1 -1 -2 -2 -2 -1 -1 -1 -0 0 1 2 4 4 5 5 6 8 9 10
3 4 3 2 2 2 2 1 1 1 0 0 -0 -1 -1 -1 -2 -2 -2 -3 -3 -3 -3 -4 -4 -4 -4 -4 -3 -3 -2 -2 -2 -1 1 2 3 4 5 5 6 8 9
3 3 2 2 2 1 1 1 0 -0 -0 -1 -1 -2 -2 -3 -4 -5 -5 -5 -6 -6 -6 -6 -6 -6 -6 -6 -5 -5 -4 -3 -2 -2 -1 1 2 3 4 4 5 6 7
3 2 2 1 1 1 1 0 -0 -1 -1 -2 -2 -3 -4 -5 -6 -6 -7 -7 -7 -8 -8 -8 -8 -8 -8 -7 -7 -6 -5 -4 -4 -3 -2 -1 1 2 3 3 4 4 6
2 2 1 1 1 1 0 0 -1 -1 -2 -2 -3 -4 -5 -6 -6 -7 -8 -8 -9 -9 -9 -9 -9 -9 -9 -9 -8 -8 -7 -6 -5 -4 -3 -3 -1 0 1 2 3 3 4
2 1 1 1 0 0 0 -0 -1 -2 -2 -3 -4 -5 -6 -6 -7 -8 -9 -9 -10 -10 -10 -10 -10 -10 -10 -10 -10 -9 -8 -7 -6 -5 -4 -3 -2 -1 -1 0 1 1 2
1 1 1 0 0 0 -0 -1 -1 -2 -3 -4 -5 -6 -6 -7 -8 -9 -10 -10 -11 -11 -11 -11 -11 -11 -11 -11 -10 -10 -9 -8 -7 -5 -4 -4 -3 -3 -2 -2 -1 0 2
1 1 0 -0 -0 -0 -1 -1 -2 -3 -3 -4 -5 -6 -7 -8 -9 -10 -11 -11 -11 -11 -11 -11 -11 -11 -11 -11 -11 -11 -10 -9 -7 -6 -5 -4 -4 -4 -3 -3 -3 -1 0
1 0 -0 -1 -1 -1 -1 -2 -2 -3 -4 -5 -6 -7 -8 -9 -10 -11 -11 -11 -11 -12 -12 -12 -12 -12 -12 -12 -12 -11 -10 -8 -7 -6 -6 -5 -4 -4 -4 -4 -3 -2 -1
1 0 -0 -1 -1 -2 -2 -3 -3 -4 -5 -7 -8 -8 -9 -9 -10 -11 -11 -11 -12 -12 -12 -12 -12 -12 -12 -12 -12 -12 -11 -9 -6 -7 -6 -5 -5 -5 -5 -4 -4 -3 -2
1 0 -0 -1 -1 -2 -2 -3 -4 -5 -6 -7 -8 -8 -9 -10 -10 -11 -11 -11 -12 -12 -12 -12 -12 -13 -13 -13 -13 -12 -12 -10 -11 -9 -7 -6 -6 -6 -5 -5 -4 -3 -2
1 0 -1 -1 -2 -2 -3 -3 -4 -6 -7 -7 -8 -9 -9 -10 -10 -11 -11 -11 -12 -12 -12 -12 -13 -13 -13 -13 -13 -13 -12 -12 -12 -10 -8 -7 -7 -6 -6 -5 -4 -4 -3
1 -0 -1 -1 -2 -2 -3 -4 -4 -6 -7 -7 -9 -9 -10 -10 -10 -11 -11 -11 -12 -12 -12 -12 -12 -13 -13 -13 -13 -13 -13 -12 -12 -11 -10 -8 -7 -7 -6 -5 -5 -4 -3
0 -0 -1 -1 -2 -3 -3 -4 -5 -6 -7 -8 -9 -10 -10 -10 -10 -10 -11 -11 -11 -11 -11 -12 -12 -12 -12 -12 -13 -13 -12 -12 -12 -11 -10 -9 -8 -7 -6 -6 -5 -4 -3

GEFSSE_850_meantemp_048.txt.gz
Temperature
7 7 7 7 7 7 6 6 6 7 7 7 7 6 6 6 6 6 7 7 7 7 8 8 8 8 8 9 10 11 11 12 13 14 14 14 14 14 14 15 15 16 16
7 7 7 7 6 6 6 6 6 6 6 6 6 6 6 5 5 5 6 6 6 6 7 7 7 7 8 8 9 9 10 11 12 13 14 14 14 14 14 14 15 15 15
7 7 8 7 7 6 6 6 6 6 6 5 5 5 5 5 5 4 5 5 5 5 5 6 6 6 7 7 8 8 9 10 11 12 13 13 13 13 13 14 14 14 15
7 8 8 7 7 7 7 6 6 5 5 5 4 4 4 4 4 4 4 4 4 4 4 4 4 5 5 6 6 7 7 8 9 10 11 12 12 13 13 13 13 14 14
7 8 8 8 7 7 7 6 5 5 4 4 4 4 4 4 3 3 3 3 3 3 3 3 3 3 4 4 5 6 6 7 8 9 9 10 11 12 12 12 13 13 14
7 7 8 8 7 7 6 6 5 5 4 4 4 4 4 3 3 3 3 3 3 3 2 2 2 2 2 2 3 4 5 5 6 8 8 9 9 10 11 11 12 12 13
7 7 7 7 7 7 6 6 5 4 4 4 3 3 3 3 3 3 3 3 3 2 2 2 2 1 1 1 1 2 2 3 5 6 7 7 8 8 8 8 10 11 12
7 7 7 7 6 6 6 5 5 4 4 3 3 3 3 3 3 3 3 3 3 2 2 2 1 1 1 1 1 1 1 1 3 4 5 6 6 6 6 6 8 10 11
6 6 6 6 6 6 5 5 4 4 4 3 3 4 4 4 4 3 3 3 3 2 2 2 1 1 1 0 0 -0 -0 0 1 2 3 4 5 5 4 5 6 8 10
6 6 6 6 6 6 5 4 4 3 3 3 3 4 4 3 3 3 3 3 2 2 2 1 1 0 0 -0 -0 -1 -1 -1 -0 0 1 2 3 3 3 4 4 6 8
5 5 5 6 6 5 5 4 4 4 3 3 3 3 3 3 3 2 2 1 1 1 0 0 -0 -1 -1 -0 -1 -2 -2 -2 -2 -1 -1 -0 1 2 2 2 3 4 6
4 5 5 5 5 5 5 4 4 3 3 3 2 2 2 2 2 1 1 0 -0 -1 -1 -1 -2 -2 -2 -2 -2 -3 -3 -4 -4 -3 -3 -2 -1 -0 1 2 2 3 4
4 5 5 5 5 5 4 4 3 2 2 2 2 1 1 1 1 -0 -0 -1 -2 -3 -3 -3 -3 -4 -4 -4 -4 -4 -5 -5 -5 -5 -5 -4 -3 -2 -1 0 1 2 2
4 4 4 4 5 4 4 3 2 2 1 1 1 0 0 -0 -1 -1 -2 -3 -4 -5 -5 -5 -6 -6 -6 -6 -6 -6 -6 -6 -6 -6 -6 -5 -4 -3 -2 -1 -0 1 2
4 4 4 4 4 4 3 2 2 1 1 1 0 -0 -1 -1 -2 -3 -3 -4 -5 -6 -6 -7 -7 -7 -7 -7 -8 -8 -7 -7 -7 -7 -7 -7 -6 -5 -4 -2 -1 -0 1
4 3 4 4 4 3 2 2 1 1 1 0 -0 -1 -1 -2 -3 -4 -4 -5 -6 -7 -7 -7 -8 -8 -8 -8 -8 -8 -8 -8 -8 -8 -8 -8 -7 -6 -5 -4 -2 -1 -0
4 3 3 4 4 3 2 2 1 1 0 0 -0 -1 -2 -3 -4 -5 -5 -6 -7 -7 -8 -8 -8 -9 -9 -9 -9 -9 -9 -9 -9 -9 -9 -9 -8 -7 -6 -5 -3 -2 -1
3 3 3 3 3 3 2 2 1 0 0 -0 -1 -2 -3 -3 -4 -5 -6 -7 -7 -8 -8 -9 -9 -9 -9 -10 -10 -10 -10 -10 -10 -10 -10 -9 -9 -8 -7 -5 -4 -3 -1
3 3 3 3 3 2 2 1 1 0 0 -0 -1 -2 -3 -4 -5 -6 -6 -7 -8 -8 -8 -9 -9 -10 -10 -10 -10 -10 -10 -10 -11 -10 -10 -10 -9 -8 -7 -6 -4 -3 -2
3 3 2 2 2 2 2 1 1 1 0 -0 -1 -2 -4 -4 -5 -6 -7 -8 -8 -9 -9 -9 -10 -10 -10 -10 -11 -11 -11 -11 -11 -11 -11 -10 -9 -8 -7 -6 -5 -4 -3
3 3 2 2 2 2 2 2 1 1 0 -1 -2 -3 -4 -5 -6 -7 -8 -8 -8 -9 -9 -9 -10 -10 -10 -10 -11 -11 -11 -11 -11 -11 -11 -10 -10 -9 -7 -6 -5 -4 -4
3 2 2 2 2 2 2 1 1 0 -0 -1 -3 -4 -5 -6 -6 -7 -8 -8 -9 -9 -9 -9 -10 -10 -10 -10 -11 -11 -11 -11 -10 -11 -11 -11 -10 -10 -8 -7 -6 -5 -5
3 2 2 2 2 2 2 1 1 -0 -1 -2 -3 -4 -5 -6 -7 -8 -8 -9 -9 -10 -10 -10 -10 -10 -10 -10 -10 -11 -11 -11 -11 -11 -11 -11 -10 -10 -9 -8 -7 -6 -5
3 2 2 2 2 2 1 1 0 -1 -1 -2 -3 -4 -5 -6 -7 -8 -9 -9 -10 -10 -10 -10 -10 -10 -10 -10 -10 -10 -11 -11 -11 -11 -10 -10 -10 -10 -9 -8 -7 -7 -6
3 3 2 2 2 2 1 1 -0 -1 -2 -3 -4 -5 -6 -6 -7 -8 -9 -9 -10 -10 -10 -10 -10 -10 -10 -10 -10 -11 -11 -11 -11 -11 -11 -10 -10 -9 -9 -8 -7 -6 -6
3 3 2 2 2 1 1 0 -0 -1 -2 -3 -4 -5 -6 -6 -7 -8 -9 -10 -10 -10 -10 -10 -10 -10 -10 -10 -10 -11 -11 -11 -11 -11 -11 -11 -10 -9 -9 -8 -7 -7 -6

GEFSSE_850_meantemp_054.txt.gz
Temperature
8 7 7 7 6 6 6 6 6 5 5 5 5 4 4 4 4 4 4 5 5 5 6 6 7 7 8 8 9 9 9 9 9 10 12 12 13 13 13 13 13 14 14
8 8 7 7 7 6 6 6 5 5 5 4 4 4 4 4 4 4 3 3 4 4 4 4 5 5 6 7 8 8 8 8 8 9 10 11 12 12 13 13 13 13 13
8 8 8 7 7 6 6 6 5 5 4 4 4 3 3 3 3 3 3 3 3 3 3 3 3 4 4 5 6 7 7 7 8 9 10 11 11 11 12 12 12 13 13
8 8 8 7 7 7 6 6 6 5 4 4 3 3 3 3 3 2 2 2 2 2 2 2 2 2 3 3 4 4 5 6 7 8 9 9 10 10 10 10 11 11 12
8 8 8 8 7 7 7 6 6 5 4 4 3 3 3 2 2 2 2 2 2 2 2 2 2 2 2 2 2 3 3 4 5 7 8 8 8 9 9 9 9 9 10
8 8 8 8 7 7 7 6 6 5 4 3 3 3 3 2 2 2 2 2 2 2 2 1 1 1 1 1 1 2 2 2 4 6 6 7 7 7 7 7 7 7 8
8 8 8 8 7 7 7 6 5 5 4 4 3 3 3 3 2 2 2 2 2 2 2 1 1 1 1 1 1 1 1 1 3 4 5 5 5 6 5 5 5 5 5
8 8 8 7 7 7 7 6 5 5 4 4 4 3 4 4 3 3 3 2 2 2 2 2 1 1 1 1 1 1 -0 0 2 3 3 3 4 4 4 4 3 3 3
7 7 7 7 7 7 7 6 6 5 5 4 4 4 4 4 4 4 3 3 2 2 2 2 1 1 1 1 1 0 0 1 1 2 2 2 2 1 2 2 2 2 2
7 7 7 7 7 6 6 6 6 5 5 4 4 4 4 4 4 3 3 3 2 2 2 1 1 0 0 1 0 -0 -0 0 0 0 0 0 -1 -1 -1 -0 1 1 1
7 7 7 6 6 6 6 6 5 5 5 4 4 4 3 3 3 3 3 2 2 1 1 0 -1 -1 -1 -1 -1 -1 -1 -1 -1 -1 -1 -2 -3 -4 -3 -3 -2 -1 -0
7 7 6 6 6 6 6 5 5 5 4 4 4 3 3 3 3 2 2 1 1 -0 -1 -1 -2 -2 -3 -3 -3 -3 -3 -3 -3 -3 -3 -3 -4 -5 -5 -4 -4 -2 -2
7 7 6 6 6 6 5 5 5 5 4 4 3 3 3 2 2 1 1 0 -0 -1 -2 -3 -3 -4 -4 -4 -4 -4 -4 -4 -4 -4 -4 -5 -5 -6 -6 -6 -5 -4 -3
6 6 6 6 6 6 5 5 5 4 4 3 3 3 2 2 1 1 -0 -1 -2 -2 -3 -4 -5 -5 -5 -5 -6 -6 -6 -5 -5 -6 -5 -6 -6 -7 -7 -7 -6 -5 -4
6 6 6 6 6 5 5 5 5 4 4 3 2 2 2 1 0 -0 -1 -2 -3 -4 -4 -5 -5 -6 -6 -6 -6 -6 -6 -6 -6 -6 -7 -7 -7 -7 -7 -7 -7 -6 -6
7 6 6 6 6 5 5 5 4 4 3 3 2 1 1 0 -0 -1 -2 -2 -3 -4 -5 -5 -6 -6 -7 -7 -7 -7 -7 -7 -7 -7 -7 -7 -7 -8 -8 -8 -8 -7 -7
7 7 6 6 6 5 5 4 4 4 3 2 2 1 0 -0 -1 -1 -2 -3 -3 -4 -5 -6 -6 -7 -7 -7 -7 -7 -7 -7 -7 -7 -8 -8 -8 -8 -9 -9 -9 -8 -7
7 7 7 6 6 5 5 4 4 3 3 2 1 1 -0 -1 -1 -2 -2 -3 -4 -5 -5 -6 -7 -7 -7 -8 -8 -8 -8 -8 -7 -8 -8 -8 -9 -9 -9 -9 -9 -9 -8
7 7 7 6 6 5 5 4 4 3 2 2 1 1 -0 -1 -1 -2 -3 -3 -4 -5 -6 -7 -7 -8 -8 -8 -9 -9 -8 -8 -8 -8 -8 -9 -9 -9 -9 -10 -10 -9 -9
7 7 7 6 6 5 4 4 3 3 2 2 1 1 0 -1 -1 -2 -3 -3 -4 -5 -6 -7 -8 -8 -9 -9 -9 -9 -9 -8 -8 -9 -9 -9 -9 -9 -10 -10 -10 -10 -9
7 7 7 6 6 5 5 4 3 3 2 2 1 1 0 -1 -2 -2 -3 -4 -5 -5 -6 -7 -8 -9 -9 -9 -10 -10 -10 -9 -9 -9 -9 -9 -9 -9 -10 -10 -10 -10 -9
8 8 7 7 6 5 5 4 3 3 2 2 1 1 -0 -1 -2 -2 -3 -4 -5 -6 -7 -8 -9 -9 -10 -10 -11 -11 -11 -11 -10 -10 -9 -10 -10 -10 -10 -10 -10 -10 -9
9 9 8 7 6 6 5 4 3 3 2 2 1 0 -0 -1 -2 -3 -3 -4 -5 -6 -7 -8 -9 -10 -10 -10 -11 -11 -11 -11 -11 -11 -10 -10 -10 -10 -10 -10 -10 -10 -9
11 10 9 8 7 6 5 4 3 3 2 2 1 0 -0 -1 -2 -3 -4 -4 -5 -7 -8 -8 -9 -10 -11 -11 -11 -11 -11 -12 -12 -12 -11 -11 -11 -11 -10 -10 -10 -10 -9
12 11 9 8 7 6 5 4 3 3 2 1 1 0 -0 -1 -2 -3 -4 -5 -6 -7 -8 -9 -9 -10 -11 -11 -11 -11 -11 -11 -12 -12 -12 -11 -11 -11 -11 -10 -10 -10 -9
12 11 10 8 7 6 5 4 3 3 2 1 1 0 -1 -1 -2 -3 -4 -5 -6 -7 -8 -9 -9 -10 -11 -11 -11 -11 -11 -12 -12 -12 -13 -12 -12 -12 -11 -11 -10 -10 -9

GEFSSE_850_meantemp_060.txt.gz
Temperature
9 9 8 8 8 8 7 7 7 7 6 6 5 5 5 5 5 5 5 5 5 5 5 6 6 6 6 6 6 6 6 8 9 10 10 11 11 11 12 13 13 14 14
10 9 8 8 8 8 8 7 7 7 6 6 5 5 5 4 4 4 4 4 4 5 5 5 5 5 5 6 6 6 6 8 9 10 10 10 10 10 11 11 12 12 13
9 9 8 8 8 8 8 7 7 6 6 5 5 4 4 4 4 4 4 4 4 4 4 4 4 5 5 5 5 5 6 8 9 9 9 9 10 9 9 9 10 11 12
9 9 9 8 8 8 8 7 6 6 5 5 5 4 4 4 4 3 3 3 3 3 3 3 4 4 4 4 5 5 5 7 9 9 9 9 9 8 7 7 8 9 10
9 9 8 8 8 8 7 7 6 5 5 5 4 4 4 3 3 3 3 3 3 3 3 3 3 3 4 4 4 5 5 7 8 8 8 8 8 8 6 6 6 7 8
9 8 8 8 8 8 7 7 6 6 5 5 5 5 4 4 4 3 3 3 2 2 2 2 2 3 3 4 4 4 5 7 7 7 8 8 7 7 5 5 5 5 6
9 8 8 8 8 8 7 7 6 6 5 5 5 5 5 4 4 4 3 2 2 2 2 2 2 3 3 4 4 4 5 6 6 6 7 7 6 5 4 4 3 3 4
8 8 8 7 8 7 7 7 6 6 6 5 5 5 5 5 4 4 3 3 3 3 3 3 3 3 4 4 3 3 4 4 5 5 5 5 5 4 3 3 3 3 2
8 8 8 8 8 7 7 7 7 6 6 6 6 5 5 5 4 4 4 3 3 3 3 3 4 4 4 3 3 3 3 3 3 3 3 4 4 3 3 2 2 2 2
8 8 8 8 8 7 7 7 7 7 6 6 5 5 5 4 4 4 4 3 3 3 3 3 3 3 3 3 2 2 2 2 2 2 2 2 2 1 1 1 1 1 1
8 8 7 7 7 7 7 7 7 6 6 6 5 5 5 4 4 4 4 3 3 3 3 3 3 2 2 2 1 1 1 0 -0 -0 -0 -0 -0 -1 -1 -1 -1 -1 -1
9 8 8 7 7 7 7 7 6 6 6 5 5 5 4 4 4 4 3 3 3 3 3 2 2 2 1 1 0 -1 -1 -2 -2 -2 -2 -2 -2 -3 -3 -3 -3 -3 -2
10 9 8 8 7 7 7 7 6 6 6 5 5 5 4 4 4 3 3 3 3 2 2 2 1 0 -0 -1 -1 -2 -3 -3 -4 -4 -4 -4 -4 -5 -5 -4 -4 -4 -4
10 9 8 8 7 7 7 6 6 6 6 5 5 5 4 4 3 3 3 2 2 2 1 1 0 -1 -1 -2 -3 -3 -4 -5 -5 -5 -5 -5 -6 -6 -6 -6 -5 -5 -5
10 9 8 8 7 7 7 6 6 6 6 5 5 5 4 4 3 3 2 2 1 1 0 -0 -1 -2 -3 -3 -4 -5 -5 -5 -6 -6 -6 -6 -7 -7 -7 -7 -6 -6 -5
11 10 9 8 7 7 7 6 6 6 5 5 5 4 4 3 3 2 2 1 1 0 -0 -1 -2 -3 -4 -4 -5 -5 -5 -6 -6 -6 -7 -7 -7 -7 -7 -8 -7 -7 -6
12 10 9 8 7 7 7 6 6 6 5 5 5 4 4 3 3 2 1 1 0 -0 -1 -2 -3 -3 -4 -5 -5 -5 -6 -6 -6 -7 -7 -7 -7 -7 -8 -8 -8 -7 -7
11 10 9 8 8 7 7 6 6 5 5 5 4 4 3 3 2 2 1 1 -0 -1 -2 -2 -3 -3 -4 -5 -5 -5 -5 -6 -6 -7 -7 -7 -8 -8 -8 -8 -9 -8 -8
11 10 9 9 8 8 7 6 5 5 5 5 4 4 3 3 2 2 1 0 -0 -1 -2 -3 -3 -4 -4 -5 -6 -5 -5 -6 -6 -6 -7 -8 -8 -8 -8 -8 -9 -9 -9
11 10 9 9 8 7 6 6 5 5 5 5 4 4 3 3 2 1 1 0 -0 -1 -2 -3 -3 -4 -5 -6 -6 -6 -5 -5 -6 -6 -7 -8 -8 -8 -9 -9 -9 -9 -9
12 11 10 9 8 7 7 6 6 6 5 5 4 4 3 3 2 1 1 0 -1 -1 -2 -3 -3 -4 -4 -6 -6 -6 -5 -5 -6 -7 -7 -8 -8 -8 -9 -9 -9 -9 -9
13 12 11 10 10 9 8 7 6 6 5 4 4 3 3 3 2 1 1 0 -1 -1 -2 -3 -4 -4 -4 -6 -7 -9 -9 -8 -8 -8 -8 -8 -8 -9 -9 -9 -9 -10 -10
14 14 13 13 11 10 9 7 6 5 5 4 4 4 3 3 2 1 1 -0 -1 -1 -2 -3 -4 -5 -5 -6 -7 -9 -10 -10 -10 -9 -8 -9 -9 -9 -9 -9 -10 -10 -10
16 15 14 14 12 11 10 8 7 6 6 6 5 4 3 2 2 1 1 -0 -1 -1 -2 -3 -4 -5 -6 -6 -7 -8 -9 -10 -11 -11 -10 -9 -10 -10 -10 -10 -10 -10 -10
17 16 15 14 13 12 11 10 8 7 7 6 5 4 3 2 2 1 0 -0 -1 -1 -2 -3 -4 -5 -6 -7 -7 -8 -9 -10 -10 -12 -12 -10 -10 -10 -10 -10 -10 -10 -10
18 17 16 15 14 13 12 11 9 8 7 6 5 4 3 3 2 1 0 -0 -1 -1 -2 -3 -4 -5 -6 -7 -7 -8 -9 -10 -10 -11 -12 -11 -11 -10 -10 -10 -10 -10 -10